Home   Weather   Yaren   Past weeks

Flag for Nauru Past Weather in Yaren, Nauru — Yesterday and Last 2 Weeks

Now
82 °F

Passing clouds.


Feels Like: 89 °F
Forecast: 82 / 86 °F
Wind: 14 mph from East

Location: Betio Village

Current Time: Sep 29, 2016 at 10:12:56 PM

Latest Report: Sep 29, 2016 at 9:00 PM


Visibility: N/A

Pressure: 29.77 "Hg

Humidity: 79%

Dew Point: 75 °F

Location of YarenLocation

Past Weather in Yaren — Graph

°F

Yaren Temperature Yesterday

Maximum temperature yesterday: 90 °F (at 11:00 AM)
Minimum temperature yesterday: 81 °F (at 2:00 AM)
Average temperature yesterday: 85 °F

High & Low Weather Summary for the Past Weeks

 TemperatureHumidityPressure
High91 °F (Sep 16, 2:00 PM)100% (Sep 22, 5:00 AM)29.89 "Hg (Sep 22, 5:00 AM)
Low77 °F (Sep 22, 5:00 AM)55% (Sep 15, 1:00 PM)29.68 "Hg (Sep 29, 4:00 PM)
Average85 °F73%29.78 "Hg
* Reported Sep 14 9:00 PM — Sep 29 9:00 PM, Yaren, Weather by CustomWeather, © 2016

Note: Actual official high and low records may vary slightly from our data, if they occured in-between our weather recording intervals... More about our weather records

Advertising

Yaren Weather History for the Previous 24 Hours

Scroll right to see more
 ConditionsComfort  
Time TempWeatherWind HumidityBarometerVisibility
9:00 PM
Thu, Sep 29
82 °FPassing clouds.14 mph79%29.77 "HgN/A
8:00 PM84 °FPassing clouds.16 mph74%29.77 "HgN/A
7:00 PM82 °FPassing clouds.14 mph79%29.74 "HgN/A
6:00 PM84 °FScattered clouds.13 mph74%29.71 "HgN/A
5:00 PM86 °FPassing clouds.14 mph70%29.71 "HgN/A
4:00 PM88 °FScattered clouds.13 mph66%29.68 "HgN/A
3:00 PM88 °FScattered clouds.10 mph66%29.71 "HgN/A
2:00 PM90 °FScattered clouds.10 mph63%29.71 "HgN/A
1:00 PM90 °FPassing clouds.14 mph59%29.74 "HgN/A
12:00 PM88 °FPassing clouds.14 mph66%29.77 "HgN/A
11:00 AM88 °FScattered clouds.15 mph62%29.80 "HgN/A
10:00 AM88 °FPassing clouds.14 mph66%29.80 "HgN/A
9:00 AM86 °FPassing clouds.12 mph70%29.80 "HgN/A
8:00 AM84 °FScattered clouds.12 mph74%29.77 "HgN/A
7:00 AM82 °FPartly sunny.12 mph79%29.74 "HgN/A
6:00 AM82 °FPassing clouds.10 mph79%29.74 "HgN/A
5:00 AM82 °FPassing clouds.14 mph79%29.71 "HgN/A
4:00 AM82 °FPassing clouds.12 mph79%29.71 "HgN/A
3:00 AM82 °FPassing clouds.12 mph84%29.71 "HgN/A
2:00 AM82 °FPassing clouds.10 mph79%29.74 "HgN/A
1:00 AM82 °FPassing clouds.13 mph79%29.74 "HgN/A
12:00 AM82 °FPassing clouds.12 mph84%29.77 "HgN/A
11:00 PM
Wed, Sep 28
82 °FPassing clouds.12 mph79%29.80 "HgN/A
10:00 PM82 °FPassing clouds.9 mph84%29.80 "HgN/A
Weather by CustomWeather, © 2016

See weather overviewHow to use our weather pages